Wind_Speed
2 4 7 13 10 3 3 4 5 3 4 1 6 6 12 6 6 8 7 7 7 8 10 18 23 27 30 32 33 33 32 29 25 21 19 26 27 25 24 24 21 19 15 11
4 6 12 4 5 6 2 2 6 5 5 5 7 9 5 7 4 5 8 7 7 5 7 15 22 27 31 31 33 34 34 31 28 26 24 20 16 24 27 24 25 22 19 18
8 7 5 7 5 6 5 6 4 7 4 2 3 6 2 5 8 10 8 6 6 6 6 8 16 22 26 29 31 34 34 32 31 28 23 22 20 24 27 28 26 25 23 22
6 4 5 4 5 7 5 8 8 5 3 4 2 4 5 5 5 5 5 6 6 6 5 7 11 18 21 23 26 29 31 31 30 30 32 33 32 27 26 26 25 25 24 24
7 4 4 5 7 7 7 4 6 3 4 3 4 2 6 7 4 6 6 5 5 5 5 5 10 15 17 20 25 27 29 30 29 30 31 31 31 28 27 27 28 28 29 29
5 1 5 7 2 6 5 4 5 4 3 1 8 8 4 5 4 5 6 8 7 6 6 8 10 13 16 19 21 25 27 28 26 28 29 29 30 29 28 28 29 29 28 29
1 4 1 2 4 3 4 5 3 4 2 5 4 2 7 3 4 9 14 9 8 7 6 6 8 10 14 16 17 20 22 25 23 25 26 26 27 26 26 25 25 25 26 27
6 4 9 6 7 6 6 7 5 7 4 4 1 6 4 2 4 9 11 9 7 7 6 6 9 10 12 13 15 16 18 19 20 22 23 22 22 22 22 21 21 22 22 22
6 5 0 2 3 7 5 4 3 5 2 2 4 3 3 4 3 5 8 7 8 7 7 7 11 11 12 12 12 12 14 16 16 17 18 19 19 19 20 20 19 20 20 21
5 1 1 2 2 3 4 6 3 2 1 5 5 6 5 6 10 8 8 10 8 7 8 7 12 11 10 10 10 10 11 12 13 13 13 14 15 16 17 17 19 18 19 21
5 3 2 3 5 8 2 3 3 3 4 5 2 7 4 10 13 14 13 11 11 10 8 7 13 13 12 12 11 10 9 9 9 8 8 8 9 12 14 17 18 19 20 22
4 4 3 7 1 3 2 7 7 6 7 3 2 14 4 7 12 11 10 11 8 8 8 10 16 16 16 14 13 11 8 7 5 5 4 5 6 9 14 17 19 20 22 23
7 1 1 5 2 1 4 4 3 4 4 6 5 7 4 5 6 6 7 7 7 8 8 7 14 18 18 17 15 13 12 9 6 3 0 3 6 10 14 18 22 23 25 28
3 5 7 12 5 4 4 5 5 5 4 5 15 8 2 4 7 6 7 6 7 7 8 7 9 18 20 19 18 16 14 11 8 5 3 4 8 12 16 21 24 26 29 32
5 8 5 3 5 3 4 5 8 8 8 11 10 10 6 10 9 9 7 7 6 7 8 10 9 15 21 20 20 18 16 14 11 9 6 5 9 14 18 22 25 28 32 34
1 3 3 3 2 4 5 7 8 11 5 6 9 17 9 5 6 5 8 7 7 7 7 7 9 14 19 22 22 20 18 15 13 11 6 8 13 17 20 22 27 31 33 34
6 6 4 11 1 3 8 11 15 10 10 9 13 18 4 6 6 7 8 7 8 7 7 8 10 18 23 25 26 22 17 15 13 9 9 12 16 18 20 25 28 30 32 33
6 7 2 3 2 5 3 3 4 7 8 7 2 3 6 4 2 4 4 6 7 6 6 6 10 16 23 24 23 18 17 16 12 10 11 14 16 18 22 25 27 28 30 32
5 5 4 4 5 7 7 5 7 7 9 9 12 6 3 1 3 5 5 5 6 7 11 14 16 18 19 19 18 18 17 14 11 10 12 14 15 19 20 22 25 27 29 32
3 4 4 3 4 8 4 2 5 5 7 7 6 5 6 5 1 6 6 6 8 11 10 14 17 16 16 17 20 21 18 14 11 11 12 13 15 16 18 20 23 26 26 30
3 1 9 5 5 8 6 5 3 6 7 4 6 6 6 5 8 5 5 7 15 15 18 19 18 20 22 21 21 19 16 15 13 13 14 13 13 15 17 19 21 24 26 28
8 8 4 2 2 9 7 5 9 5 1 6 6 6 8 9 8 6 7 8 11 15 17 18 18 22 22 22 21 17 16 14 14 14 13 13 13 14 17 19 21 23 25 26
3 7 6 11 7 1 7 5 10 5 6 6 5 6 8 8 8 9 8 10 16 22 23 21 22 23 24 23 20 18 15 14 14 13 12 12 13 13 15 18 21 24 23 23
5 4 3 4 4 5 7 8 4 6 8 6 6 6 7 10 10 10 9 9 12 21 22 22 22 24 26 23 19 16 14 13 13 12 11 11 12 13 14 16 18 21 23 22
5 8 6 2 4 3 8 7 6 8 8 7 6 7 10 10 11 10 9 8 17 22 20 21 26 27 27 22 18 15 13 12 12 11 11 11 11 13 15 16 17 19 21 19
6 7 4 5 8 6 6 6 8 9 12 11 10 8 10 11 14 11 11 18 20 19 18 20 23 23 20 19 17 15 13 13 12 12 11 11 12 13 14 17 22 18 17 18
Wind_Direction
27 110 209 206 202 171 164 191 220 256 261 17 251 241 267 310 101 111 112 103 84 60 31 43 53 60 59 56 56 56 55 55 63 69 66 60 62 64 62 60 55 50 38 21
60 214 229 133 179 207 207 266 262 279 270 165 275 278 289 29 32 121 115 94 85 71 36 33 42 54 60 62 61 61 61 60 62 66 70 73 73 60 54 51 51 49 43 39
176 211 158 169 175 170 196 200 212 223 326 287 321 289 226 54 79 82 77 97 85 87 69 35 40 54 60 62 64 66 64 64 68 73 79 74 68 57 44 40 41 38 38 37
232 258 177 164 205 144 215 202 209 218 119 224 112 270 296 140 107 82 108 111 116 109 82 65 61 63 66 67 72 73 71 70 69 73 73 72 68 64 57 55 51 47 42 39
237 189 174 185 203 169 228 144 166 159 156 87 290 319 257 132 164 173 166 156 138 123 110 92 83 78 75 77 76 77 77 74 71 72 76 78 77 72 65 59 59 54 49 47
231 272 179 203 106 169 134 99 53 50 89 217 218 189 250 195 177 167 168 163 164 154 138 118 101 94 89 83 81 81 79 78 75 73 72 72 70 64 57 51 47 43 40 38
229 236 224 161 97 66 86 88 337 336 356 236 109 147 245 304 314 184 169 173 176 171 169 154 128 102 92 89 87 85 83 82 79 78 76 72 69 63 58 50 43 37 33 29
168 262 166 188 200 174 180 161 160 229 209 251 121 234 257 330 336 138 150 169 166 181 182 168 150 133 115 104 100 100 96 94 84 78 75 68 63 59 53 46 38 33 28 23
156 270 22 170 151 147 185 184 173 111 65 37 226 288 238 116 71 129 155 160 192 194 191 181 171 157 142 127 115 108 103 94 84 79 74 66 58 49 41 34 28 24 17 12
193 196 150 169 111 27 157 159 89 358 249 247 270 266 226 210 195 190 186 200 200 205 202 186 180 170 156 143 131 123 113 103 93 84 75 65 53 43 34 23 17 10 5 0
146 147 213 122 212 179 126 199 89 145 155 194 259 260 237 204 177 191 204 203 200 201 199 190 185 178 173 170 162 150 132 117 106 91 76 58 41 28 19 14 5 357 351 349
205 138 167 198 233 301 242 206 167 196 234 235 163 262 6 164 183 184 197 208 209 203 195 190 190 185 184 184 180 175 164 153 136 115 78 41 20 4 358 355 353 347 342 340
182 169 32 338 351 73 225 198 141 108 66 199 207 260 1 73 146 195 197 214 217 205 199 190 190 193 194 194 193 192 193 190 184 175 109 353 349 350 347 343 341 339 337 336
171 162 181 238 190 134 180 197 178 156 192 207 235 257 258 226 197 197 217 222 229 217 194 193 193 201 204 202 202 205 206 207 209 213 250 314 329 335 334 332 330 330 331 330
164 227 165 218 158 149 218 208 173 194 216 216 242 222 220 204 213 224 223 239 237 223 201 200 201 205 207 206 212 216 219 218 219 222 235 288 314 319 319 319 321 323 324 324
90 192 109 256 242 195 252 235 204 236 244 255 263 268 246 185 212 190 215 211 208 223 219 208 203 204 207 213 221 223 223 217 213 212 241 288 300 307 311 315 318 320 321 323
141 135 132 235 90 105 278 218 211 208 210 215 233 242 151 229 189 212 218 200 209 211 209 204 203 210 220 229 232 229 219 211 213 232 264 286 296 304 312 317 319 320 321 321
134 129 148 125 109 222 261 75 106 221 250 211 266 233 215 222 264 262 222 191 204 202 209 218 222 229 236 240 239 232 207 204 216 244 270 284 293 302 310 313 316 319 320 321
138 140 153 198 202 320 271 194 169 170 260 192 212 220 212 111 42 292 217 202 207 212 232 235 238 240 242 240 229 200 195 208 226 253 270 279 291 303 308 311 315 319 318 318
67 61 170 131 178 220 269 69 103 107 274 213 168 187 177 121 146 262 206 201 212 208 220 233 239 241 234 214 200 197 201 212 230 247 258 274 291 298 304 310 314 314 316 314
101 126 215 201 233 281 228 194 135 113 250 158 175 188 146 186 212 210 178 197 209 224 240 248 246 239 229 206 201 203 211 224 239 248 263 279 290 298 305 307 310 313 316 315
159 163 195 84 183 269 157 73 165 198 74 166 190 201 193 220 235 207 204 213 214 236 247 242 232 226 218 209 207 210 221 234 239 253 268 280 290 300 306 307 312 315 316 313
223 193 182 186 205 33 209 194 215 162 168 203 198 207 208 225 226 220 216 217 231 240 250 243 230 218 209 209 212 217 226 229 244 255 268 282 293 300 305 310 314 314 316 311
250 164 197 110 206 214 217 244 247 204 223 219 220 219 197 220 225 229 230 239 236 245 239 235 217 208 208 209 213 221 226 237 246 255 270 286 295 302 308 309 312 310 310 307
192 139 152 264 257 172 244 232 235 233 234 258 248 223 225 217 238 224 236 234 242 243 237 225 215 209 210 207 213 224 235 242 250 261 273 286 293 303 308 309 311 308 306 302
170 182 160 207 219 188 231 215 220 229 244 237 234 252 237 210 235 238 237 241 241 237 228 215 213 212 207 208 216 229 241 246 250 257 272 287 297 302 307 312 317 318 299 302
Height
825 835 839 832 831 827 829 838 836 832 823 825 830 832 820 816 825 838 841 842 843 844 845 840 835 831 829 825 821 818 816 815 813 812 814 818 820 822 822 823 823 823 823 822
833 836 820 821 828 831 833 835 841 834 825 828 828 826 817 829 834 837 843 846 847 848 847 845 841 836 831 829 827 824 821 821 820 820 822 824 826 829 829 828 827 827 826 825
828 817 815 820 827 832 834 838 834 834 826 826 827 831 819 839 841 842 846 847 849 849 848 847 845 842 838 834 832 829 829 827 825 825 826 829 829 829 830 833 832 832 831 830
825 812 812 821 821 825 833 824 824 827 833 842 829 846 824 832 844 848 850 851 851 850 850 849 847 844 842 840 837 833 833 833 833 829 827 829 836 837 840 839 840 838 836 834
815 811 818 819 816 817 821 820 825 823 834 836 835 845 828 833 841 846 851 854 853 851 851 850 849 848 846 843 840 838 836 835 838 837 831 834 836 840 843 842 839 841 841 839
812 807 809 809 810 812 814 822 832 842 843 853 833 833 826 825 821 840 846 848 852 854 851 850 850 849 847 847 845 841 840 841 843 839 839 840 839 842 843 844 843 844 844 842
812 811 805 804 811 813 818 827 848 852 860 843 834 839 818 825 830 828 840 848 850 851 854 850 848 850 849 847 847 845 844 843 846 844 844 842 842 845 846 847 846 847 845 844
817 816 808 804 804 812 822 822 842 848 858 841 836 832 810 834 836 829 837 844 848 851 851 850 850 849 849 848 848 847 848 848 847 845 845 846 847 847 849 849 849 848 847 846
813 809 801 802 799 801 818 825 821 840 900 869 826 818 826 834 838 838 840 844 847 848 850 849 849 849 848 849 850 850 850 850 849 849 848 849 850 851 850 850 849 849 849 846
794 804 801 802 803 806 807 813 829 846 850 862 827 821 807 833 836 839 841 840 844 847 849 848 848 849 850 851 851 851 850 850 849 850 850 850 850 851 851 852 850 850 848 845
794 797 805 802 809 809 814 816 817 824 836 842 857 807 805 808 820 830 831 833 835 838 842 844 846 847 849 850 850 850 850 850 850 850 851 851 851 851 851 850 849 848 846 843
790 799 828 805 802 812 802 806 807 813 825 843 836 796 808 810 813 819 827 830 832 834 836 840 841 844 846 848 848 849 850 851 851 851 851 850 849 849 850 850 847 846 843 841
790 806 838 813 805 804 807 805 811 824 836 847 832 811 815 816 819 821 824 827 829 831 834 837 840 841 842 844 845 846 848 848 849 849 849 850 850 847 847 847 844 842 839 837
780 792 795 788 796 803 813 811 811 815 820 810 800 803 822 816 817 819 823 824 826 828 830 832 834 836 837 839 842 843 845 846 847 847 847 847 848 846 844 843 842 839 836 833
785 787 803 798 796 803 804 807 811 812 803 802 793 807 806 815 817 818 818 822 824 825 827 828 830 832 834 837 838 839 840 842 844 845 845 845 845 844 842 840 838 835 833 829
790 803 804 815 809 807 810 807 807 802 806 812 812 806 803 809 813 817 818 818 821 822 823 824 826 829 831 832 833 834 836 838 840 841 841 841 841 840 838 836 834 831 828 824
791 804 814 791 821 818 819 810 801 800 802 799 806 792 815 805 809 811 814 816 816 817 818 819 821 823 825 827 828 830 832 834 835 836 836 836 836 835 833 831 829 827 823 820
795 801 811 826 841 816 783 796 794 797 799 804 810 816 808 803 803 806 808 809 812 813 814 815 816 818 820 822 824 825 827 829 830 831 832 833 832 831 829 827 825 822 819 815
785 796 820 811 847 811 784 790 799 800 796 801 799 803 801 806 809 808 806 807 809 810 810 812 813 814 815 817 818 821 823 825 826 827 829 829 828 827 825 823 821 818 814 810
797 791 798 848 835 820 779 786 788 792 809 803 799 805 808 811 822 804 801 803 805 806 807 808 809 810 811 812 814 817 819 820 822 823 825 825 824 823 820 818 815 812 809 804
825 812 795 818 810 813 799 795 789 818 791 801 801 799 809 812 800 794 795 799 800 801 804 804 805 805 805 808 810 812 814 815 817 819 820 820 819 817 815 812 810 806 802 798
799 814 823 831 830 814 785 792 791 783 784 788 793 792 797 793 791 793 793 795 797 798 798 799 800 800 801 804 806 808 810 812 813 815 815 815 814 812 809 806 804 801 797 793
785 776 795 793 790 777 781 774 771 775 779 782 783 782 786 788 788 787 789 791 791 791 791 792 793 795 797 799 802 804 807 809 810 811 810 810 808 806 804 801 797 794 792 789
778 775 776 782 774 779 775 773 772 775 776 772 774 774 779 783 781 782 783 783 783 783 784 785 788 790 792 795 798 802 803 805 805 805 805 804 803 801 799 796 793 790 787 784
764 769 779 781 769 773 772 768 767 769 770 771 771 772 774 776 775 776 777 777 776 776 777 779 781 783 786 791 795 797 798 799 800 800 799 798 797 795 793 790 788 785 782 781
755 752 762 773 756 757 757 757 759 765 765 764 766 767 766 768 769 768 768 767 768 769 770 773 776 780 784 788 791 792 792 793 794 794 794 793 791 790 787 785 780 780 778 775